Београд, метеограме

Београд: време по сату
Понедељак, 18 Jануара
Време Падавине Температура Осећа се Притисак Влажност Ветар
17:00 0 мм -4.7° -4.8° 760.000 мм.ж.с 87% 2 м/с, З
18:00 0 мм -5.3° -5.4° 760.000 мм.ж.с 87% 2 м/с, З
19:00 0 мм -6° -6° 760.000 мм.ж.с 88% 1 м/с, ЈЗ
20:00 0 мм -6° -6° 760.000 мм.ж.с 87% 2 м/с, ЈЗ
21:00 0 мм -6° -6.1° 761.000 мм.ж.с 86% 2 м/с, ЈЗ
22:00 0 мм -6.1° -6.1° 761.000 мм.ж.с 85% 2 м/с, ЈЗ
23:00 0 мм -5.9° -5.9° 761.000 мм.ж.с 84% 2 м/с, ЈЗ
Уторак, 19 Jануара
Време Падавине Температура Осећа се Притисак Влажност Ветар
00:00 0 мм -5.7° -5.7° 761.000 мм.ж.с 84% 2 м/с, ЈЗ
01:00 0 мм -5.5° -5.5° 761.000 мм.ж.с 83% 2 м/с, ЈЗ
02:00 0.04 мм -5.3° -5.4° 761.000 мм.ж.с 86% 2 м/с, ЈЗ
03:00 0.04 мм -5.2° -5.3° 761.000 мм.ж.с 88% 2 м/с, ЈЗ
04:00 0.04 мм -5.1° -5.1° 761.000 мм.ж.с 91% 2 м/с, ЈЗ
05:00 0.03 мм -4.9° -5° 761.000 мм.ж.с 90% 2 м/с, ЈЗ
06:00 0.03 мм -4.8° -4.8° 761.000 мм.ж.с 90% 2 м/с, ЈЗ
07:00 0.03 мм -4.6° -4.6° 761.000 мм.ж.с 89% 2 м/с, ЈЗ
08:00 0 мм -3.4° -3.5° 761.000 мм.ж.с 88% 2 м/с, ЈЗ
09:00 0 мм -2.3° -2.4° 761.000 мм.ж.с 87% 2 м/с, ЈЗ
10:00 0 мм -1.1° -1.2° 761.000 мм.ж.с 86% 2 м/с, Ј
11:00 0 мм -0.4° -0.5° 760.000 мм.ж.с 88% 2 м/с, Ј
12:00 0 мм +0.2° +0.2° 760.000 мм.ж.с 90% 2 м/с, Ј
13:00 0 мм +0.9° +0.9° 759.000 мм.ж.с 92% 2 м/с, Ј
14:00 0 мм +0.4° +0.4° 759.000 мм.ж.с 91% 2 м/с, Ј
15:00 0 мм -0.1° -0.1° 759.000 мм.ж.с 89% 2 м/с, ЈИ
16:00 0 мм -0.5° -0.6° 758.000 мм.ж.с 88% 2 м/с, ЈИ
17:00 0 мм -1.1° -1.2° 758.000 мм.ж.с 86% 2 м/с, ЈИ
18:00 0 мм -1.6° -1.7° 758.000 мм.ж.с 85% 2 м/с, ЈИ
19:00 0 мм -2.1° -2.3° 758.000 мм.ж.с 83% 2 м/с, ЈИ
20:00 0 мм -1.8° -1.9° 758.000 мм.ж.с 82% 2 м/с, Ј
21:00 0 мм -1.4° -1.5° 758.000 мм.ж.с 81% 2 м/с, Ј
22:00 0 мм -1° -1.2° 758.000 мм.ж.с 80% 2 м/с, Ј
23:00 0 мм -1.2° -1.3° 758.000 мм.ж.с 80% 2 м/с, Ј
Среда, 20 Jануара
Време Падавине Температура Осећа се Притисак Влажност Ветар
00:00 0 мм -1.3° -1.5° 758.000 мм.ж.с 79% 2 м/с, Ј
01:00 0 мм -1.5° -1.7° 758.000 мм.ж.с 78% 2 м/с, Ј
02:00 0 мм -1.4° -1.6° 758.000 мм.ж.с 78% 2 м/с, Ј
03:00 0 мм -1.4° -1.6° 758.000 мм.ж.с 77% 2 м/с, Ј
04:00 0 мм -1.3° -1.5° 758.000 мм.ж.с 77% 2 м/с, Ј
05:00 0 мм -1.2° -1.4° 758.000 мм.ж.с 76% 2 м/с, Ј
06:00 0 мм -1.1° -1.3° 758.000 мм.ж.с 76% 2 м/с, Ј
07:00 0 мм -1° -1.2° 758.000 мм.ж.с 75% 2 м/с, Ј
08:00 0 мм -0.2° -0.4° 758.000 мм.ж.с 77% 2 м/с, Ј
09:00 0 мм +0.6° +0.4° 758.000 мм.ж.с 78% 2 м/с, Ј
10:00 0 мм +1.4° +1.2° 758.000 мм.ж.с 80% 2 м/с, Ј
11:00 0 мм +1.9° +1.8° 758.000 мм.ж.с 83% 3 м/с, Ј
12:00 0 мм +2.4° +2.4° 757.000 мм.ж.с 85% 3 м/с, Ј
13:00 0 мм +2.9° +2.9° 757.000 мм.ж.с 88% 3 м/с, Ј
14:00 0 мм +2.6° +2.6° 757.000 мм.ж.с 86% 3 м/с, Ј
15:00 0 мм +2.4° +2.3° 757.000 мм.ж.с 85% 3 м/с, Ј
16:00 0 мм +2.1° +2° 756.000 мм.ж.с 83% 3 м/с, Ј

Такође

Meteograms hourly weather Мапе времена Преглед времена
Meteograms hourly weather Мапе времена Преглед времена
 
Време у Србији:
О проjекту
© meteoprog.rs 2003-2021.
Meteoprog.ua - погода в Украине 0.0462
sitemap